PROBA-1 1 26958U 01049B 26105.27276281 .00001643 00000+0 11001-3 0 9992 2 26958 97.9627 111.6139 0054694 337.4050 22.4769 15.07258353334148 CUTE-1 (CO-55) 1 27844U 03031E 26105.30486740 .00000188 00000+0 10046-3 0 9998 2 27844 98.6765 114.6504 0009803 15.6729 344.4752 14.24296041182721 CUBESAT XI-IV (CO-57) 1 27848U 03031J 26104.98076810 .00000167 00000+0 92384-4 0 9991 2 27848 98.6796 114.0935 0010079 34.0369 326.1454 14.23586623182388 APRIZESAT 4 1 35684U 09041D 26105.13885238 .00000455 00000+0 60998-4 0 9991 2 35684 98.1432 179.2022 0043781 164.4588 195.7981 14.83782682902018 APRIZESAT 3 1 35686U 09041F 26105.23152355 .00001342 00000+0 12124-3 0 9994 2 35686 98.1977 255.4782 0060420 274.9805 84.4519 14.96031386906963 PROBA-2 1 36037U 09059B 26104.41616513 .00000128 00000+0 40256-4 0 9993 2 36037 98.2448 288.6535 0014354 115.6466 244.6215 14.54814509872258 APRIZESAT 5 1 37792U 11044E 26105.24173699 .00000421 00000+0 60693-4 0 9997 2 37792 98.2427 36.5162 0051694 204.1040 155.7752 14.80953818789475 APRIZESAT 6 1 37793U 11044F 26105.28554329 .00000365 00000+0 59247-4 0 9995 2 37793 98.2395 14.4944 0041869 287.9106 197.7804 14.76830385787861 PROBA-V 1 39159U 13021A 26105.21399359 .00000029 00000+0 30618-4 0 9991 2 39159 98.3553 86.9436 0003499 333.0239 27.0758 14.23583374672156 APRIZESAT 7 1 39416U 13066A 26105.29205434 .00000900 00000+0 94644-4 0 9991 2 39416 97.7653 59.4438 0037305 61.0367 299.4584 14.91406219671851 APRIZESAT 8 1 39425U 13066K 26104.57662997 .00000568 00000+0 67569-4 0 9998 2 39425 97.8171 52.9598 0047112 133.9210 226.5910 14.87516550670213 BUGSAT-1 (TITA) 1 40014U 14033E 26105.30118574 .00003183 00000+0 17293-3 0 9992 2 40014 98.0411 194.2133 0029099 38.0927 322.2353 15.14968486646317 SAUDISAT 4 1 40016U 14033G 26105.28864161 .00000344 00000+0 52331-4 0 9990 2 40016 97.7488 253.6326 0043424 278.3169 81.3120 14.79452147636774 APRIZESAT 9 1 40018U 14033J 26105.28706203 .00000285 00000+0 49406-4 0 9997 2 40018 97.8956 240.0592 0067111 43.4916 317.1558 14.74144377634290 APRIZESAT 10 1 40019U 14033K 26105.26840520 .00000352 00000+0 62874-4 0 9996 2 40019 97.9546 233.6689 0080168 114.3709 246.5892 14.70822027633002 TECHDEMOSAT-1 (TDS-1) 1 40076U 14037H 26104.92456662 .00004707 00000+0 27609-3 0 9999 2 40076 98.3802 90.9286 0008019 116.1486 244.0567 15.12302932638663 TECHNOSAT 1 42829U 17042E 26105.27580578 .00001146 00000+0 85717-4 0 9998 2 42829 97.4196 265.3711 0016736 311.5886 48.3905 15.04567865477243 FLYING LAPTOP 1 42831U 17042G 26105.31861909 .00001625 00000+0 13218-3 0 9994 2 42831 97.4400 263.3966 0019032 340.1047 19.9433 15.00757348477022 HAWK-A 1 43765U 18099H 26104.86557998 .00004029 00000+0 16717-3 0 9991 2 43765 97.3983 157.9459 0036566 146.4645 213.8918 15.23819844403455 HAWK-B 1 43794U 18099AN 26105.07569134 .00003793 00000+0 16643-3 0 9997 2 43794 97.4032 157.6973 0033256 162.4478 197.7916 15.22067488403430 HAWK-C 1 43799U 18099AT 26105.04751731 .00004959 00000+0 18449-3 0 9996 2 43799 97.3959 158.7351 0042493 147.2497 213.1389 15.27109858404272 SALSAT 1 46495U 20068K 26105.26708578 .00004087 00000+0 14851-3 0 9991 2 46495 97.8862 104.5486 0010709 153.9105 206.2675 15.28870140305742 HAWK-2C 1 47502U 21006CT 26105.08458927 .00003782 00000+0 11765-3 0 9996 2 47502 97.2348 150.6684 0008648 74.0292 286.1903 15.33883435289824 HAWK-2A 1 47505U 21006CW 26105.08763388 .00003731 00000+0 11606-3 0 9997 2 47505 97.2390 151.3118 0008276 77.2740 282.9428 15.33895860289825 HAWK-2B 1 47508U 21006CZ 26105.08473112 .00004463 00000+0 13828-3 0 9994 2 47508 97.2263 149.7454 0008769 75.0740 285.1473 15.33908808289826 HAWK-3B 1 48931U 21059BE 26104.78407737 .00023205 00000+0 24132-3 0 9994 2 48931 97.6708 295.7389 0005595 191.3902 168.7231 15.64593918267921 HAWK-3C 1 48948U 21059BX 26105.29541015 .00020471 00000+0 21289-3 0 9999 2 48948 97.6843 301.8675 0005900 189.6676 170.4469 15.64617852268001 HAWK-3A 1 48957U 21059CG 26104.78366187 .00023761 00000+0 24705-3 0 9998 2 48957 97.6785 298.5665 0005630 191.0305 169.0830 15.64594863267925 HAWK-5C 1 52754U 22057Y 26105.17348034 .00009968 00000+0 18512-3 0 9994 2 52754 97.6509 260.9307 0003759 297.6573 62.4296 15.49138374216587 HAWK-5B 1 52756U 22057AA 26105.23790838 .00010051 00000+0 18671-3 0 9997 2 52756 97.6511 259.3418 0003692 289.8804 70.2048 15.49129879216596 HAWK-5A 1 52757U 22057AB 26105.23768037 .00010147 00000+0 18843-3 0 9991 2 52757 97.6512 260.1751 0004078 293.3296 66.7525 15.49135549216593 HAWK-6B 1 55324U 23011A 26105.08671345 .00002688 00000+0 12232-3 0 9990 2 55324 40.4998 359.9541 0004265 298.1437 61.8941 15.22362831178224 HAWK-6C 1 55326U 23011C 26105.08610236 .00002779 00000+0 12618-3 0 9993 2 55326 40.4988 356.8030 0004543 286.8631 73.1680 15.22363479178239 HAWK-6A 1 55327U 23011D 26105.08612982 .00002750 00000+0 12494-3 0 9995 2 55327 40.4999 358.4218 0004285 286.8582 73.1757 15.22363303178237 HAWK-7A 1 56191U 23054P 26105.13656788 .00002740 00000+0 10705-3 0 9992 2 56191 97.2783 354.0801 0001077 242.3990 117.7140 15.26702506167408 HAWK-7B 1 56193U 23054R 26105.26758932 .00002692 00000+0 10523-3 0 9996 2 56193 97.2813 352.4488 0000295 282.3657 77.7549 15.26703338167426 HAWK-7C 1 56200U 23054Y 26105.26749054 .00002701 00000+0 10558-3 0 9999 2 56200 97.2788 353.2375 0000627 219.3273 140.7920 15.26702693167420